Time,TemperatureF,DewpointF,PressureIn,WindDirection,WindDirectionDegrees,WindSpeedMPH,WindSpeedGustMPH,Humidity,HourlyPrecipIn,Conditions,Clouds,dailyrainin,SoftwareType,DateUTC
2013-04-15 00:00:00,31.2,28.3,30.20,North,354,0.0,0.0,89,0.00,,,0.00,Wunderground v.1.15,2013-04-15 04:00:00,
2013-04-15 00:01:00,31.0,28.1,30.20,North,354,0.0,0.0,89,0.00,,,0.00,Wunderground v.1.15,2013-04-15 04:01:00,
2013-04-15 00:02:00,31.0,28.1,30.20,North,354,0.0,0.0,89,0.00,,,0.00,Wunderground v.1.15,2013-04-15 04:02:00,
2013-04-15 00:05:00,30.7,27.8,30.20,North,354,0.0,0.0,89,0.00,,,0.00,Wunderground v.1.15,2013-04-15 04:05:00,
2013-04-15 00:11:00,30.4,27.8,30.21,North,354,0.0,0.0,90,0.00,,,0.00,Wunderground v.1.15,2013-04-15 04:11:00,
2013-04-15 00:16:00,30.6,28.3,30.21,North,354,0.0,0.0,91,0.00,,,0.00,Wunderground v.1.15,2013-04-15 04:16:00,
2013-04-15 00:22:00,30.9,28.6,30.21,North,354,0.0,0.0,91,0.00,,,0.00,Wunderground v.1.15,2013-04-15 04:22:00,
2013-04-15 00:27:00,30.7,28.1,30.22,North,354,0.0,0.0,90,0.00,,,0.00,Wunderground v.1.15,2013-04-15 04:27:00,
2013-04-15 00:32:00,30.6,28.0,30.22,North,354,0.0,0.0,90,0.00,,,0.00,Wunderground v.1.15,2013-04-15 04:32:00,
2013-04-15 00:38:00,30.6,28.3,30.22,North,354,0.0,0.0,91,0.00,,,0.00,Wunderground v.1.15,2013-04-15 04:38:00,
2013-04-15 00:43:00,30.6,28.3,30.21,North,354,0.0,0.0,91,0.00,,,0.00,Wunderground v.1.15,2013-04-15 04:43:00,
2013-04-15 00:48:00,30.6,28.3,30.21,North,354,0.0,0.0,91,0.00,,,0.00,Wunderground v.1.15,2013-04-15 04:48:00,
2013-04-15 00:54:00,30.6,28.3,30.21,North,354,0.0,0.0,91,0.00,,,0.00,Wunderground v.1.15,2013-04-15 04:54:00,
2013-04-15 00:59:00,30.6,28.3,30.22,North,354,0.0,0.0,91,0.00,,,0.00,Wunderground v.1.15,2013-04-15 04:59:00,
2013-04-15 01:04:00,30.6,28.3,30.22,North,354,0.0,0.0,91,0.00,,,0.00,Wunderground v.1.15,2013-04-15 05:04:00,
2013-04-15 01:10:00,30.4,28.1,30.22,North,354,0.0,0.0,91,0.00,,,0.00,Wunderground v.1.15,2013-04-15 05:10:00,
2013-04-15 01:16:00,30.4,28.1,30.22,North,354,0.0,0.0,91,0.00,,,0.00,Wunderground v.1.15,2013-04-15 05:16:00,
2013-04-15 01:21:00,30.4,28.1,30.22,North,354,0.0,0.0,91,0.00,,,0.00,Wunderground v.1.15,2013-04-15 05:21:00,
2013-04-15 01:26:00,30.3,27.7,30.22,North,354,0.0,0.0,90,0.00,,,0.01,Wunderground v.1.15,2013-04-15 05:26:00,
2013-04-15 01:32:00,30.1,27.5,30.22,North,354,0.0,0.0,90,0.00,,,0.01,Wunderground v.1.15,2013-04-15 05:32:00,
2013-04-15 01:37:00,30.1,27.8,30.22,North,354,0.0,0.0,91,0.00,,,0.01,Wunderground v.1.15,2013-04-15 05:37:00,
2013-04-15 01:43:00,30.0,27.7,30.23,North,354,0.0,0.0,91,0.00,,,0.01,Wunderground v.1.15,2013-04-15 05:43:00,
2013-04-15 01:49:00,30.0,27.7,30.23,North,354,0.0,0.0,91,0.00,,,0.01,Wunderground v.1.15,2013-04-15 05:49:00,
2013-04-15 01:54:00,30.0,27.7,30.23,North,354,0.0,0.0,91,0.00,,,0.01,Wunderground v.1.15,2013-04-15 05:54:00,
2013-04-15 01:59:00,30.0,28.0,30.23,North,354,0.0,0.0,92,0.00,,,0.01,Wunderground v.1.15,2013-04-15 05:59:00,
2013-04-15 02:04:00,30.0,28.0,30.23,North,354,0.0,0.0,92,0.00,,,0.01,Wunderground v.1.15,2013-04-15 06:04:00,
2013-04-15 02:09:00,30.0,28.0,30.23,North,354,0.0,0.0,92,0.00,,,0.01,Wunderground v.1.15,2013-04-15 06:09:00,
2013-04-15 02:14:00,29.8,27.8,30.23,North,354,0.0,0.0,92,0.00,,,0.01,Wunderground v.1.15,2013-04-15 06:14:00,
2013-04-15 02:19:00,29.8,27.8,30.23,North,354,0.0,0.0,92,0.00,,,0.01,Wunderground v.1.15,2013-04-15 06:19:00,
2013-04-15 02:25:00,29.8,27.5,30.23,North,354,0.0,0.0,91,0.00,,,0.01,Wunderground v.1.15,2013-04-15 06:25:00,
2013-04-15 02:30:00,29.7,27.7,30.23,North,354,0.0,0.0,92,0.00,,,0.01,Wunderground v.1.15,2013-04-15 06:30:00,
2013-04-15 02:35:00,29.7,27.4,30.23,North,354,0.0,0.0,91,0.00,,,0.01,Wunderground v.1.15,2013-04-15 06:35:00,
2013-04-15 02:40:00,29.5,27.2,30.23,North,354,0.0,0.0,91,0.00,,,0.01,Wunderground v.1.15,2013-04-15 06:40:00,
2013-04-15 02:45:00,29.5,27.2,30.22,North,354,0.0,0.0,91,0.00,,,0.01,Wunderground v.1.15,2013-04-15 06:45:00,
2013-04-15 02:50:00,29.4,27.1,30.22,North,354,0.0,0.0,91,0.00,,,0.01,Wunderground v.1.15,2013-04-15 06:50:00,
2013-04-15 02:56:00,29.4,27.1,30.22,North,354,0.0,0.0,91,0.00,,,0.01,Wunderground v.1.15,2013-04-15 06:56:00,
2013-04-15 03:01:00,29.3,27.0,30.22,North,354,0.0,0.0,91,0.00,,,0.01,Wunderground v.1.15,2013-04-15 07:01:00,
2013-04-15 03:41:00,28.8,26.5,30.24,North,354,0.0,0.0,91,0.00,,,0.01,Wunderground v.1.15,2013-04-15 07:41:00,
2013-04-15 03:43:00,28.8,26.5,30.23,North,354,0.0,0.0,91,0.00,,,0.01,Wunderground v.1.15,2013-04-15 07:43:00,
2013-04-15 03:48:00,28.7,26.4,30.23,North,354,0.0,0.0,91,0.00,,,0.01,Wunderground v.1.15,2013-04-15 07:48:00,
2013-04-15 03:54:00,28.7,26.4,30.23,North,354,0.0,0.0,91,0.00,,,0.01,Wunderground v.1.15,2013-04-15 07:54:00,
2013-04-15 03:59:00,28.5,26.5,30.25,North,354,0.0,0.0,92,0.00,,,0.02,Wunderground v.1.15,2013-04-15 07:59:00,
2013-04-15 04:04:00,28.5,26.5,30.25,North,354,0.0,0.0,92,0.00,,,0.02,Wunderground v.1.15,2013-04-15 08:04:00,
2013-04-15 04:09:00,28.4,26.4,30.25,North,354,0.0,0.0,92,0.00,,,0.02,Wunderground v.1.15,2013-04-15 08:09:00,
2013-04-15 04:14:00,28.4,26.4,30.25,North,354,0.0,0.0,92,0.00,,,0.02,Wunderground v.1.15,2013-04-15 08:14:00,
2013-04-15 04:20:00,28.2,26.2,30.25,North,354,0.0,0.0,92,0.00,,,0.02,Wunderground v.1.15,2013-04-15 08:20:00,
2013-04-15 04:25:00,28.2,26.2,30.25,North,354,0.0,0.0,92,0.00,,,0.02,Wunderground v.1.15,2013-04-15 08:25:00,
2013-04-15 04:30:00,28.2,26.2,30.25,North,354,0.0,0.0,92,0.00,,,0.02,Wunderground v.1.15,2013-04-15 08:30:00,
2013-04-15 04:35:00,28.1,26.1,30.25,North,354,0.0,0.0,92,0.00,,,0.02,Wunderground v.1.15,2013-04-15 08:35:00,
2013-04-15 04:37:00,28.1,26.3,30.25,North,354,0.0,0.0,93,0.00,,,0.02,Wunderground v.1.15,2013-04-15 08:37:00,
2013-04-15 04:40:00,28.1,26.3,30.25,North,354,0.0,0.0,93,0.00,,,0.02,Wunderground v.1.15,2013-04-15 08:40:00,
2013-04-15 04:41:00,28.1,26.3,30.26,North,354,0.0,0.0,93,0.00,,,0.02,Wunderground v.1.15,2013-04-15 08:41:00,
2013-04-15 04:42:00,28.1,26.3,30.26,North,354,0.0,0.0,93,0.00,,,0.02,Wunderground v.1.15,2013-04-15 08:42:00,
2013-04-15 04:47:00,28.1,26.3,30.26,North,354,0.0,0.0,93,0.00,,,0.02,Wunderground v.1.15,2013-04-15 08:47:00,
2013-04-15 04:52:00,27.9,26.1,30.26,North,354,0.0,0.0,93,0.00,,,0.02,Wunderground v.1.15,2013-04-15 08:52:00,
2013-04-15 04:57:00,27.9,26.1,30.26,North,354,0.0,0.0,93,0.00,,,0.02,Wunderground v.1.15,2013-04-15 08:57:00,
2013-04-15 05:02:00,27.8,26.0,30.26,North,354,0.0,0.0,93,0.00,,,0.02,Wunderground v.1.15,2013-04-15 09:02:00,
2013-04-15 05:07:00,27.6,25.8,30.26,North,354,0.0,0.0,93,0.00,,,0.02,Wunderground v.1.15,2013-04-15 09:07:00,
2013-04-15 05:12:00,27.6,25.8,30.27,North,354,0.0,0.0,93,0.00,,,0.02,Wunderground v.1.15,2013-04-15 09:12:00,
2013-04-15 05:18:00,27.5,25.5,30.27,North,354,0.0,0.0,92,0.00,,,0.02,Wunderground v.1.15,2013-04-15 09:18:00,
2013-04-15 05:23:00,27.5,25.5,30.27,North,354,0.0,0.0,92,0.00,,,0.02,Wunderground v.1.15,2013-04-15 09:23:00,
2013-04-15 05:28:00,27.5,25.5,30.28,North,354,0.0,0.0,92,0.00,,,0.02,Wunderground v.1.15,2013-04-15 09:28:00,
2013-04-15 05:33:00,27.3,25.3,30.28,North,354,0.0,0.0,92,0.00,,,0.02,Wunderground v.1.15,2013-04-15 09:33:00,
2013-04-15 05:38:00,27.3,25.3,30.28,North,354,0.0,0.0,92,0.00,,,0.02,Wunderground v.1.15,2013-04-15 09:38:00,
2013-04-15 05:43:00,27.3,25.3,30.29,North,354,0.0,0.0,92,0.00,,,0.02,Wunderground v.1.15,2013-04-15 09:43:00,
2013-04-15 05:48:00,27.3,25.3,30.29,North,354,0.0,0.0,92,0.00,,,0.02,Wunderground v.1.15,2013-04-15 09:48:00,
2013-04-15 05:54:00,27.2,25.2,30.29,North,354,0.0,0.0,92,0.00,,,0.02,Wunderground v.1.15,2013-04-15 09:54:00,
2013-04-15 05:59:00,27.2,25.2,30.30,North,354,0.0,0.0,92,0.00,,,0.02,Wunderground v.1.15,2013-04-15 09:59:00,
2013-04-15 06:04:00,27.2,25.2,30.30,North,354,0.0,0.0,92,0.00,,,0.02,Wunderground v.1.15,2013-04-15 10:04:00,
2013-04-15 06:10:00,27.0,25.0,30.30,North,354,0.0,0.0,92,0.00,,,0.02,Wunderground v.1.15,2013-04-15 10:10:00,
2013-04-15 06:15:00,27.0,25.0,30.31,North,354,0.0,0.0,92,0.00,,,0.02,Wunderground v.1.15,2013-04-15 10:15:00,
2013-04-15 06:20:00,27.0,25.0,30.31,North,354,0.0,0.0,92,0.00,,,0.02,Wunderground v.1.15,2013-04-15 10:20:00,
2013-04-15 06:25:00,26.9,24.9,30.31,North,354,0.0,0.0,92,0.00,,,0.02,Wunderground v.1.15,2013-04-15 10:25:00,
2013-04-15 06:30:00,26.9,24.9,30.31,North,354,0.0,0.0,92,0.00,,,0.02,Wunderground v.1.15,2013-04-15 10:30:00,
2013-04-15 06:35:00,26.9,24.9,30.31,North,354,0.0,0.0,92,0.00,,,0.02,Wunderground v.1.15,2013-04-15 10:35:00,
2013-04-15 06:40:00,26.9,24.9,30.31,North,354,0.0,0.0,92,0.00,,,0.02,Wunderground v.1.15,2013-04-15 10:40:00,
2013-04-15 06:45:00,26.9,24.9,30.33,North,354,0.0,0.0,92,0.00,,,0.02,Wunderground v.1.15,2013-04-15 10:45:00,
2013-04-15 06:51:00,26.9,24.9,30.33,North,354,0.0,0.0,92,0.00,,,0.02,Wunderground v.1.15,2013-04-15 10:51:00,
2013-04-15 06:56:00,27.0,25.0,30.33,North,354,0.0,0.0,92,0.00,,,0.02,Wunderground v.1.15,2013-04-15 10:56:00,
2013-04-15 07:01:00,27.2,25.4,30.33,North,354,0.0,0.0,93,0.00,,,0.02,Wunderground v.1.15,2013-04-15 11:01:00,
2013-04-15 07:07:00,27.2,25.4,30.33,North,354,0.0,0.0,93,0.00,,,0.02,Wunderground v.1.15,2013-04-15 11:07:00,
2013-04-15 07:12:00,27.3,25.5,30.34,North,354,0.0,0.0,93,0.00,,,0.02,Wunderground v.1.15,2013-04-15 11:12:00,
2013-04-15 07:17:00,27.3,25.5,30.34,North,354,0.0,0.0,93,0.00,,,0.02,Wunderground v.1.15,2013-04-15 11:17:00,
2013-04-15 07:22:00,27.6,26.1,30.34,North,354,0.0,0.0,94,0.00,,,0.02,Wunderground v.1.15,2013-04-15 11:22:00,
2013-04-15 07:27:00,27.8,26.3,30.35,North,354,0.0,0.0,94,0.00,,,0.02,Wunderground v.1.15,2013-04-15 11:27:00,
2013-04-15 07:32:00,28.1,26.6,30.35,North,354,0.0,0.0,94,0.00,,,0.02,Wunderground v.1.15,2013-04-15 11:32:00,
2013-04-15 07:37:00,28.2,27.0,30.35,North,354,0.0,0.0,95,0.00,,,0.02,Wunderground v.1.15,2013-04-15 11:37:00,
2013-04-15 07:42:00,28.4,27.2,30.35,North,354,0.0,0.0,95,0.00,,,0.02,Wunderground v.1.15,2013-04-15 11:42:00,
2013-04-15 07:48:00,28.7,27.4,30.35,North,354,0.0,0.0,95,0.00,,,0.02,Wunderground v.1.15,2013-04-15 11:48:00,
2013-04-15 07:53:00,28.8,27.8,30.35,North,354,0.0,0.0,96,0.00,,,0.02,Wunderground v.1.15,2013-04-15 11:53:00,
2013-04-15 07:58:00,29.1,28.1,30.36,North,354,0.0,0.0,96,0.00,,,0.02,Wunderground v.1.15,2013-04-15 11:58:00,
2013-04-15 08:03:00,29.5,28.5,30.36,North,354,0.0,0.0,96,0.00,,,0.02,Wunderground v.1.15,2013-04-15 12:03:00,
2013-04-15 08:08:00,29.8,28.8,30.36,North,354,0.0,0.0,96,0.00,,,0.02,Wunderground v.1.15,2013-04-15 12:08:00,
2013-04-15 08:13:00,30.3,29.6,30.36,North,354,0.0,0.0,97,0.00,,,0.02,Wunderground v.1.15,2013-04-15 12:13:00,
2013-04-15 08:19:00,30.9,30.1,30.36,North,354,0.0,0.0,97,0.00,,,0.02,Wunderground v.1.15,2013-04-15 12:19:00,
2013-04-15 08:24:00,31.9,31.1,30.36,North,354,0.0,0.0,97,0.00,,,0.02,Wunderground v.1.15,2013-04-15 12:24:00,
2013-04-15 08:29:00,32.7,31.4,30.36,North,354,0.0,0.0,95,0.00,,,0.02,Wunderground v.1.15,2013-04-15 12:29:00,
2013-04-15 08:34:00,33.1,31.3,30.36,North,354,0.0,0.0,93,0.00,,,0.02,Wunderground v.1.15,2013-04-15 12:34:00,
2013-04-15 08:40:00,33.8,31.2,30.36,North,354,0.0,0.0,90,0.00,,,0.02,Wunderground v.1.15,2013-04-15 12:40:00,
2013-04-15 08:45:00,34.4,31.2,30.36,North,354,0.0,0.0,88,0.00,,,0.02,Wunderground v.1.15,2013-04-15 12:45:00,
2013-04-15 08:50:00,35.2,31.1,30.36,North,354,0.0,0.0,85,0.00,,,0.02,Wunderground v.1.15,2013-04-15 12:50:00,
2013-04-15 08:55:00,35.6,31.2,30.36,North,354,0.0,0.0,84,0.00,,,0.02,Wunderground v.1.15,2013-04-15 12:55:00,
2013-04-15 09:00:00,36.2,30.9,30.36,North,352,0.0,0.0,81,0.00,,,0.02,Wunderground v.1.15,2013-04-15 13:00:00,
2013-04-15 09:05:00,36.6,30.7,30.36,North,352,0.0,0.0,79,0.00,,,0.02,Wunderground v.1.15,2013-04-15 13:05:00,
2013-04-15 09:10:00,37.2,31.0,30.36,North,352,0.0,0.0,78,0.00,,,0.02,Wunderground v.1.15,2013-04-15 13:10:00,
2013-04-15 09:15:00,37.9,31.0,30.36,North,352,0.0,0.0,76,0.00,,,0.02,Wunderground v.1.15,2013-04-15 13:15:00,
2013-04-15 09:20:00,38.9,32.0,30.36,North,352,0.0,0.0,76,0.00,,,0.02,Wunderground v.1.15,2013-04-15 13:20:00,
2013-04-15 09:26:00,39.9,32.9,30.36,North,352,0.0,0.0,76,0.00,,,0.02,Wunderground v.1.15,2013-04-15 13:26:00,
2013-04-15 09:32:00,40.9,31.1,30.36,North,352,0.0,0.0,68,0.00,,,0.02,Wunderground v.1.15,2013-04-15 13:32:00,
2013-04-15 09:37:00,41.2,31.8,30.36,North,352,0.0,0.0,69,0.00,,,0.02,Wunderground v.1.15,2013-04-15 13:37:00,
2013-04-15 09:42:00,41.9,32.1,30.36,North,352,0.0,0.0,68,0.00,,,0.02,Wunderground v.1.15,2013-04-15 13:42:00,
2013-04-15 09:47:00,42.3,31.7,30.36,North,352,0.0,0.0,66,0.00,,,0.03,Wunderground v.1.15,2013-04-15 13:47:00,
2013-04-15 09:53:00,42.8,31.1,30.36,SSW,213,0.0,0.0,63,0.13,,,0.04,Wunderground v.1.15,2013-04-15 13:53:00,
2013-04-15 09:58:00,43.5,32.1,30.36,SSW,213,0.0,0.0,64,0.20,,,0.05,Wunderground v.1.15,2013-04-15 13:58:00,
2013-04-15 10:03:00,44.1,32.7,30.36,SSW,213,0.0,0.0,64,0.11,,,0.06,Wunderground v.1.15,2013-04-15 14:03:00,
2013-04-15 10:08:00,44.2,31.2,30.36,SSW,213,0.0,0.0,60,0.10,,,0.08,Wunderground v.1.15,2013-04-15 14:08:00,
2013-04-15 10:13:00,44.2,32.4,30.36,SSW,213,0.0,0.0,63,0.14,,,0.09,Wunderground v.1.15,2013-04-15 14:13:00,
2013-04-15 10:19:00,44.3,32.9,30.36,SSW,213,0.0,0.0,64,0.13,,,0.10,Wunderground v.1.15,2013-04-15 14:19:00,
2013-04-15 10:24:00,44.6,31.1,30.36,SSW,213,0.0,0.0,59,0.20,,,0.12,Wunderground v.1.15,2013-04-15 14:24:00,
2013-04-15 10:29:00,45.1,32.0,30.36,SSW,213,0.0,0.0,60,0.20,,,0.13,Wunderground v.1.15,2013-04-15 14:29:00,
2013-04-15 10:34:00,45.7,30.9,30.36,SSW,213,0.0,0.0,56,0.16,,,0.14,Wunderground v.1.15,2013-04-15 14:34:00,
2013-04-15 10:39:00,46.0,32.0,30.36,SSW,213,0.0,0.0,58,0.15,,,0.16,Wunderground v.1.15,2013-04-15 14:39:00,
2013-04-15 10:44:00,46.2,30.9,30.36,SSW,213,0.0,0.0,55,0.15,,,0.17,Wunderground v.1.15,2013-04-15 14:44:00,
2013-04-15 10:49:00,46.7,30.9,30.36,South,179,0.0,0.0,54,0.15,,,0.18,Wunderground v.1.15,2013-04-15 14:49:00,
2013-04-15 10:54:00,47.0,28.8,30.36,SSE,162,0.0,0.0,49,0.18,,,0.20,Wunderground v.1.15,2013-04-15 14:54:00,
2013-04-15 10:59:00,47.4,29.2,30.36,North,1,0.0,0.0,49,0.25,,,0.22,Wunderground v.1.15,2013-04-15 14:59:00,
2013-04-15 11:04:00,47.7,28.9,30.36,ENE,57,0.0,0.0,48,0.26,,,0.24,Wunderground v.1.15,2013-04-15 15:04:00,
2013-04-15 11:09:00,48.3,30.5,30.36,East,88,0.0,0.0,50,0.26,,,0.26,Wunderground v.1.15,2013-04-15 15:09:00,
2013-04-15 11:15:00,48.8,29.4,30.36,SSW,206,0.0,0.0,47,0.14,,,0.27,Wunderground v.1.15,2013-04-15 15:15:00,
2013-04-15 11:20:00,49.1,29.7,30.36,SSW,206,0.0,1.0,47,0.23,,,0.29,Wunderground v.1.15,2013-04-15 15:20:00,
2013-04-15 11:25:00,49.1,29.2,30.36,East,91,0.0,0.0,46,0.23,,,0.31,Wunderground v.1.15,2013-04-15 15:25:00,
2013-04-15 11:30:00,48.8,28.9,30.36,ESE,112,0.0,0.0,46,0.18,,,0.32,Wunderground v.1.15,2013-04-15 15:30:00,
2013-04-15 11:35:00,49.5,30.6,30.36,ESE,112,0.0,0.0,48,0.18,,,0.34,Wunderground v.1.15,2013-04-15 15:35:00,
2013-04-15 11:40:00,49.8,28.7,30.36,SSE,165,0.0,0.0,44,0.21,,,0.35,Wunderground v.1.15,2013-04-15 15:40:00,
2013-04-15 11:46:00,50.5,31.0,30.35,NE,45,0.0,4.0,47,0.19,,,0.37,Wunderground v.1.15,2013-04-15 15:46:00,
2013-04-15 11:52:00,50.5,29.4,30.35,East,93,0.0,4.0,44,0.22,,,0.39,Wunderground v.1.15,2013-04-15 15:52:00,
2013-04-15 11:57:00,50.8,30.7,30.35,SW,221,0.0,0.0,46,0.11,,,0.40,Wunderground v.1.15,2013-04-15 15:57:00,
2013-04-15 12:02:00,52.2,33.1,30.35,SW,221,0.0,0.0,48,0.06,,,0.40,Wunderground v.1.15,2013-04-15 16:02:00,
2013-04-15 12:08:00,52.2,30.4,30.35,SE,134,0.0,0.0,43,0.04,,,0.40,Wunderground v.1.15,2013-04-15 16:08:00,
2013-04-15 12:13:00,53.2,31.3,30.34,NNE,28,0.0,0.0,43,0.00,,,0.40,Wunderground v.1.15,2013-04-15 16:13:00,
2013-04-15 12:18:00,53.1,29.4,30.34,North,5,0.0,2.0,40,0.00,,,0.40,Wunderground v.1.15,2013-04-15 16:18:00,
2013-04-15 12:24:00,53.6,32.2,30.34,SSW,204,0.0,4.0,44,0.00,,,0.40,Wunderground v.1.15,2013-04-15 16:24:00,
2013-04-15 12:29:00,53.3,31.9,30.33,SW,218,0.0,2.0,44,0.00,,,0.40,Wunderground v.1.15,2013-04-15 16:29:00,
2013-04-15 12:34:00,52.2,30.4,30.33,SSW,203,0.0,2.0,43,0.00,,,0.40,Wunderground v.1.15,2013-04-15 16:34:00,
2013-04-15 12:39:00,52.9,31.6,30.33,East,94,0.0,0.0,44,0.00,,,0.40,Wunderground v.1.15,2013-04-15 16:39:00,
2013-04-15 12:44:00,54.4,32.3,30.33,East,87,0.0,0.0,43,0.00,,,0.40,Wunderground v.1.15,2013-04-15 16:44:00,
2013-04-15 12:49:00,54.1,32.1,30.33,ESE,114,0.0,1.0,43,0.00,,,0.40,Wunderground v.1.15,2013-04-15 16:49:00,
2013-04-15 12:54:00,53.3,28.9,30.33,East,97,0.0,1.0,39,0.00,,,0.40,Wunderground v.1.15,2013-04-15 16:54:00,
2013-04-15 12:59:00,52.9,29.8,30.32,East,94,0.0,0.0,41,0.00,,,0.40,Wunderground v.1.15,2013-04-15 16:59:00,
2013-04-15 13:04:00,54.4,31.2,30.32,NE,54,0.0,2.0,41,0.00,,,0.40,Wunderground v.1.15,2013-04-15 17:04:00,
2013-04-15 13:09:00,54.7,28.2,30.32,SSW,201,0.0,1.0,36,0.00,,,0.40,Wunderground v.1.15,2013-04-15 17:09:00,
2013-04-15 13:15:00,54.5,28.1,30.32,SSW,203,0.0,1.0,36,0.00,,,0.40,Wunderground v.1.15,2013-04-15 17:15:00,
2013-04-15 13:20:00,55.6,31.0,30.32,East,97,0.0,1.0,39,0.00,,,0.40,Wunderground v.1.15,2013-04-15 17:20:00,
2013-04-15 13:21:00,55.7,31.1,30.32,ENE,73,0.0,1.0,39,0.00,,,0.40,Wunderground v.1.15,2013-04-15 17:21:00,
2013-04-15 13:22:00,55.1,30.6,30.32,East,80,0.0,1.0,39,0.00,,,0.40,Wunderground v.1.15,2013-04-15 17:22:00,
2013-04-15 13:27:00,55.6,31.0,30.31,East,91,0.0,0.0,39,0.00,,,0.40,Wunderground v.1.15,2013-04-15 17:27:00,
2013-04-15 13:29:00,55.4,30.8,30.31,East,91,0.0,0.0,39,0.00,,,0.40,Wunderground v.1.15,2013-04-15 17:29:00,
2013-04-15 13:34:00,56.5,29.1,30.31,SE,132,0.0,2.0,35,0.00,,,0.40,Wunderground v.1.15,2013-04-15 17:34:00,
2013-04-15 13:39:00,57.5,30.0,30.31,NNE,28,0.0,1.0,35,0.00,,,0.40,Wunderground v.1.15,2013-04-15 17:39:00,
2013-04-15 13:44:00,57.5,30.0,30.31,NNE,25,0.0,4.0,35,0.00,,,0.40,Wunderground v.1.15,2013-04-15 17:44:00,
2013-04-15 13:49:00,57.3,29.9,30.31,East,98,0.0,0.0,35,0.00,,,0.40,Wunderground v.1.15,2013-04-15 17:49:00,
2013-04-15 13:54:00,56.6,31.3,30.31,SW,221,0.0,0.0,38,0.00,,,0.40,Wunderground v.1.15,2013-04-15 17:54:00,
2013-04-15 14:00:00,58.3,32.8,30.31,NNE,30,0.0,0.0,38,0.00,,,0.40,Wunderground v.1.15,2013-04-15 18:00:00,
2013-04-15 14:05:00,57.0,31.6,30.31,ESE,108,0.0,0.0,38,0.00,,,0.40,Wunderground v.1.15,2013-04-15 18:05:00,
2013-04-15 14:10:00,56.2,30.2,30.31,NNW,347,0.0,0.0,37,0.00,,,0.40,Wunderground v.1.15,2013-04-15 18:10:00,
2013-04-15 14:15:00,57.0,31.0,30.31,North,2,0.0,0.0,37,0.00,,,0.40,Wunderground v.1.15,2013-04-15 18:15:00,
2013-04-15 14:20:00,57.2,31.1,30.31,North,2,0.0,0.0,37,0.00,,,0.40,Wunderground v.1.15,2013-04-15 18:20:00,
2013-04-15 14:25:00,58.7,32.5,30.31,NNE,29,0.0,0.0,37,0.00,,,0.40,Wunderground v.1.15,2013-04-15 18:25:00,
2013-04-15 14:29:00,58.1,29.8,30.31,West,266,0.0,0.0,34,0.00,,,0.40,Wunderground v.1.15,2013-04-15 18:29:00,
2013-04-15 14:31:00,58.0,30.5,30.31,South,183,0.0,2.0,35,0.00,,,0.40,Wunderground v.1.15,2013-04-15 18:31:00,
2013-04-15 14:34:00,57.2,29.1,30.31,NNW,334,0.0,2.0,34,0.00,,,0.40,Wunderground v.1.15,2013-04-15 18:34:00,
2013-04-15 14:39:00,57.5,30.0,30.31,NNW,334,0.0,0.0,35,0.00,,,0.40,Wunderground v.1.15,2013-04-15 18:39:00,
2013-04-15 14:44:00,59.5,31.8,30.30,NNE,15,0.0,0.0,35,0.00,,,0.40,Wunderground v.1.15,2013-04-15 18:44:00,
2013-04-15 14:50:00,58.3,29.3,30.30,NNW,331,0.0,0.0,33,0.00,,,0.40,Wunderground v.1.15,2013-04-15 18:50:00,
2013-04-15 14:55:00,57.5,30.7,30.30,SE,138,0.0,1.0,36,0.00,,,0.40,Wunderground v.1.15,2013-04-15 18:55:00,
2013-04-15 15:00:00,57.6,32.2,30.29,SSE,158,0.0,2.0,38,0.00,,,0.40,Wunderground v.1.15,2013-04-15 19:00:00,
2013-04-15 15:05:00,58.4,29.4,30.29,West,268,0.0,0.0,33,0.00,,,0.40,Wunderground v.1.15,2013-04-15 19:05:00,
2013-04-15 15:10:00,58.0,33.2,30.29,WNW,302,0.0,0.0,39,0.00,,,0.40,Wunderground v.1.15,2013-04-15 19:10:00,
2013-04-15 15:16:00,58.6,31.0,30.28,WNW,303,0.0,0.0,35,0.00,,,0.40,Wunderground v.1.15,2013-04-15 19:16:00,
2013-04-15 15:21:00,58.4,29.4,30.28,ENE,69,0.0,0.0,33,0.00,,,0.40,Wunderground v.1.15,2013-04-15 19:21:00,
2013-04-15 15:27:00,58.9,32.0,30.27,East,90,0.0,1.0,36,0.00,,,0.40,Wunderground v.1.15,2013-04-15 19:27:00,
2013-04-15 15:32:00,58.7,31.1,30.27,South,177,2.0,4.0,35,0.00,,,0.40,Wunderground v.1.15,2013-04-15 19:32:00,
2013-04-15 15:37:00,57.5,30.0,30.27,East,81,0.0,0.0,35,0.00,,,0.40,Wunderground v.1.15,2013-04-15 19:37:00,
2013-04-15 15:42:00,57.8,31.7,30.27,NNE,22,0.0,1.0,37,0.00,,,0.40,Wunderground v.1.15,2013-04-15 19:42:00,
2013-04-15 15:48:00,58.6,31.7,30.27,NNE,23,0.0,0.0,36,0.00,,,0.40,Wunderground v.1.15,2013-04-15 19:48:00,
2013-04-15 15:53:00,58.3,31.4,30.27,NNE,23,0.0,0.0,36,0.00,,,0.40,Wunderground v.1.15,2013-04-15 19:53:00,
2013-04-15 15:57:00,58.3,31.4,30.26,NNE,23,0.0,0.0,36,0.00,,,0.40,Wunderground v.1.15,2013-04-15 19:57:00,
2013-04-15 16:00:00,58.4,31.5,30.26,ENE,74,2.0,2.0,36,0.00,,,0.40,Wunderground v.1.15,2013-04-15 20:00:00,
2013-04-15 16:01:00,58.7,32.5,30.26,ENE,71,2.0,4.0,37,0.00,,,0.40,Wunderground v.1.15,2013-04-15 20:01:00,
2013-04-15 16:02:00,58.9,32.7,30.26,ENE,73,0.0,4.0,37,0.00,,,0.40,Wunderground v.1.15,2013-04-15 20:02:00,
2013-04-15 16:03:00,58.9,32.0,30.26,ENE,73,0.0,4.0,36,0.00,,,0.40,Wunderground v.1.15,2013-04-15 20:03:00,
2013-04-15 16:04:00,58.6,31.7,30.26,East,86,0.0,4.0,36,0.00,,,0.40,Wunderground v.1.15,2013-04-15 20:04:00,
2013-04-15 16:09:00,58.3,32.1,30.26,East,86,0.0,0.0,37,0.00,,,0.40,Wunderground v.1.15,2013-04-15 20:09:00,
2013-04-15 16:14:00,58.3,30.7,30.26,East,93,0.0,0.0,35,0.00,,,0.40,Wunderground v.1.15,2013-04-15 20:14:00,
2013-04-15 16:19:00,58.6,31.7,30.26,NE,54,0.0,4.0,36,0.00,,,0.40,Wunderground v.1.15,2013-04-15 20:19:00,
2013-04-15 16:24:00,58.4,30.8,30.26,East,86,0.0,4.0,35,0.00,,,0.40,Wunderground v.1.15,2013-04-15 20:24:00,
2013-04-15 16:29:00,58.1,30.6,30.25,SSE,167,0.0,0.0,35,0.00,,,0.40,Wunderground v.1.15,2013-04-15 20:29:00,
2013-04-15 16:34:00,58.0,31.2,30.25,ESE,104,0.0,0.0,36,0.00,,,0.40,Wunderground v.1.15,2013-04-15 20:34:00,
2013-04-15 16:39:00,58.1,29.8,30.25,ENE,60,0.0,0.0,34,0.00,,,0.40,Wunderground v.1.15,2013-04-15 20:39:00,
2013-04-15 16:44:00,58.0,30.5,30.26,SE,132,0.0,2.0,35,0.00,,,0.40,Wunderground v.1.15,2013-04-15 20:44:00,
2013-04-15 16:50:00,58.0,29.8,30.26,East,98,0.0,0.0,34,0.00,,,0.40,Wunderground v.1.15,2013-04-15 20:50:00,
2013-04-15 16:55:00,57.8,31.0,30.26,East,91,0.0,0.0,36,0.00,,,0.40,Wunderground v.1.15,2013-04-15 20:55:00,
2013-04-15 17:00:00,58.0,30.5,30.26,East,88,0.0,0.0,35,0.00,,,0.40,Wunderground v.1.15,2013-04-15 21:00:00,
2013-04-15 17:05:00,57.8,30.3,30.26,ESE,105,0.0,0.0,35,0.00,,,0.40,Wunderground v.1.15,2013-04-15 21:05:00,
2013-04-15 17:10:00,57.6,31.5,30.26,South,179,0.0,0.0,37,0.00,,,0.40,Wunderground v.1.15,2013-04-15 21:10:00,
2013-04-15 17:16:00,57.8,32.3,30.26,SE,139,0.0,0.0,38,0.00,,,0.40,Wunderground v.1.15,2013-04-15 21:16:00,
2013-04-15 17:21:00,57.8,33.0,30.26,NNE,18,0.0,0.0,39,0.00,,,0.40,Wunderground v.1.15,2013-04-15 21:21:00,
2013-04-15 17:26:00,57.5,31.4,30.26,North,359,0.0,0.0,37,0.00,,,0.40,Wunderground v.1.15,2013-04-15 21:26:00,
2013-04-15 17:31:00,57.5,32.1,30.26,North,358,0.0,0.0,38,0.00,,,0.40,Wunderground v.1.15,2013-04-15 21:31:00,
2013-04-15 17:36:00,57.3,32.5,30.26,NNE,25,0.0,0.0,39,0.00,,,0.40,Wunderground v.1.15,2013-04-15 21:36:00,
2013-04-15 17:42:00,57.2,32.4,30.27,NNE,25,0.0,0.0,39,0.00,,,0.40,Wunderground v.1.15,2013-04-15 21:42:00,
2013-04-15 17:47:00,57.2,31.8,30.27,SW,214,0.0,1.0,38,0.00,,,0.40,Wunderground v.1.15,2013-04-15 21:47:00,
2013-04-15 17:52:00,56.9,31.5,30.27,East,93,0.0,4.0,38,0.00,,,0.40,Wunderground v.1.15,2013-04-15 21:52:00,
2013-04-15 17:57:00,56.7,32.6,30.27,North,358,0.0,0.0,40,0.00,,,0.40,Wunderground v.1.15,2013-04-15 21:57:00,
2013-04-15 18:02:00,56.5,33.1,30.27,ENE,77,0.0,0.0,41,0.00,,,0.40,Wunderground v.1.15,2013-04-15 22:02:00,
2013-04-15 18:07:00,56.3,32.3,30.27,ENE,77,0.0,0.0,40,0.00,,,0.40,Wunderground v.1.15,2013-04-15 22:07:00,
2013-04-15 18:12:00,56.3,31.6,30.27,East,95,0.0,4.0,39,0.00,,,0.40,Wunderground v.1.15,2013-04-15 22:12:00,
2013-04-15 18:17:00,56.0,32.0,30.27,East,86,0.0,0.0,40,0.00,,,0.40,Wunderground v.1.15,2013-04-15 22:17:00,
2013-04-15 18:22:00,55.7,33.5,30.27,NE,53,0.0,1.0,43,0.00,,,0.40,Wunderground v.1.15,2013-04-15 22:22:00,
2013-04-15 18:27:00,55.3,32.6,30.28,ENE,62,0.0,0.0,42,0.00,,,0.40,Wunderground v.1.15,2013-04-15 22:27:00,
2013-04-15 18:32:00,55.1,32.4,30.28,NNE,26,1.0,1.0,42,0.00,,,0.40,Wunderground v.1.15,2013-04-15 22:32:00,
2013-04-15 18:37:00,55.0,32.3,30.28,NE,43,0.0,0.0,42,0.00,,,0.40,Wunderground v.1.15,2013-04-15 22:37:00,
2013-04-15 18:43:00,54.5,34.1,30.28,NNE,18,4.0,4.0,46,0.00,,,0.40,Wunderground v.1.15,2013-04-15 22:43:00,
2013-04-15 18:48:00,54.2,34.4,30.28,NE,43,0.0,4.0,47,0.00,,,0.40,Wunderground v.1.15,2013-04-15 22:48:00,
2013-04-15 18:53:00,53.8,34.6,30.28,NNE,30,0.0,6.0,48,0.00,,,0.40,Wunderground v.1.15,2013-04-15 22:53:00,
2013-04-15 18:58:00,53.3,34.6,30.30,East,80,0.0,1.0,49,0.00,,,0.40,Wunderground v.1.15,2013-04-15 22:58:00,
2013-04-15 19:03:00,52.9,34.8,30.30,ESE,122,0.0,1.0,50,0.00,,,0.40,Wunderground v.1.15,2013-04-15 23:03:00,
2013-04-15 19:08:00,52.2,34.1,30.30,ENE,57,1.0,4.0,50,0.00,,,0.40,Wunderground v.1.15,2013-04-15 23:08:00,
2013-04-15 19:13:00,51.6,34.5,30.31,ENE,62,0.0,4.0,52,0.00,,,0.40,Wunderground v.1.15,2013-04-15 23:13:00,
2013-04-15 19:18:00,51.1,34.1,30.31,ENE,64,0.0,1.0,52,0.00,,,0.40,Wunderground v.1.15,2013-04-15 23:18:00,
2013-04-15 19:23:00,50.8,34.3,30.31,NNE,14,0.0,1.0,53,0.00,,,0.40,Wunderground v.1.15,2013-04-15 23:23:00,
2013-04-15 19:29:00,50.4,33.9,30.32,North,11,0.0,0.0,53,0.00,,,0.40,Wunderground v.1.15,2013-04-15 23:29:00,
2013-04-15 19:34:00,49.6,34.1,30.32,North,11,0.0,0.0,55,0.00,,,0.40,Wunderground v.1.15,2013-04-15 23:34:00,
2013-04-15 19:39:00,49.1,34.1,30.32,ENE,57,1.0,1.0,56,0.00,,,0.40,Wunderground v.1.15,2013-04-15 23:39:00,
2013-04-15 19:44:00,48.9,33.4,30.32,NE,53,0.0,1.0,55,0.00,,,0.40,Wunderground v.1.15,2013-04-15 23:44:00,
2013-04-15 19:49:00,48.8,33.3,30.32,NE,53,0.0,0.0,55,0.00,,,0.40,Wunderground v.1.15,2013-04-15 23:49:00,
2013-04-15 19:54:00,48.6,33.1,30.32,ENE,74,0.0,4.0,55,0.00,,,0.40,Wunderground v.1.15,2013-04-15 23:54:00,
2013-04-15 20:00:00,48.5,33.1,30.32,ENE,73,0.0,0.0,55,0.00,,,0.40,Wunderground v.1.15,2013-04-16 00:00:00,
2013-04-15 20:05:00,48.0,33.5,30.32,ENE,73,0.0,0.0,57,0.00,,,0.40,Wunderground v.1.15,2013-04-16 00:05:00,
2013-04-15 20:10:00,47.7,33.2,30.32,ENE,73,0.0,0.0,57,0.00,,,0.40,Wunderground v.1.15,2013-04-16 00:10:00,
2013-04-15 20:15:00,47.6,32.7,30.32,ENE,57,0.0,0.0,56,0.00,,,0.40,Wunderground v.1.15,2013-04-16 00:15:00,
2013-04-15 20:20:00,47.3,33.3,30.32,ENE,57,0.0,0.0,58,0.00,,,0.40,Wunderground v.1.15,2013-04-16 00:20:00,
2013-04-15 20:25:00,47.0,33.4,30.32,ENE,57,0.0,0.0,59,0.00,,,0.40,Wunderground v.1.15,2013-04-16 00:25:00,
2013-04-15 20:30:00,46.4,33.7,30.33,ENE,57,0.0,0.0,61,0.00,,,0.40,Wunderground v.1.15,2013-04-16 00:30:00,
2013-04-15 20:35:00,46.1,33.4,30.33,ENE,57,0.0,0.0,61,0.00,,,0.40,Wunderground v.1.15,2013-04-16 00:35:00,
2013-04-15 20:40:00,46.1,32.6,30.33,ENE,57,0.0,0.0,59,0.00,,,0.40,Wunderground v.1.15,2013-04-16 00:40:00,
2013-04-15 20:45:00,45.4,33.1,30.34,ENE,57,0.0,0.0,62,0.00,,,0.40,Wunderground v.1.15,2013-04-16 00:45:00,
2013-04-15 20:50:00,45.1,33.2,30.34,ENE,57,0.0,0.0,63,0.00,,,0.40,Wunderground v.1.15,2013-04-16 00:50:00,
2013-04-15 20:55:00,44.1,33.5,30.34,ENE,57,0.0,0.0,66,0.00,,,0.40,Wunderground v.1.15,2013-04-16 00:55:00,
2013-04-15 21:01:00,43.5,33.6,30.35,ENE,57,0.0,0.0,68,0.00,,,0.40,Wunderground v.1.15,2013-04-16 01:01:00,
2013-04-15 21:06:00,43.5,33.3,30.35,NE,53,0.0,0.0,67,0.00,,,0.40,Wunderground v.1.15,2013-04-16 01:06:00,
2013-04-15 21:11:00,43.2,33.3,30.34,NE,53,0.0,0.0,68,0.00,,,0.40,Wunderground v.1.15,2013-04-16 01:11:00,
2013-04-15 21:17:00,43.2,33.0,30.34,NE,53,0.0,0.0,67,0.00,,,0.40,Wunderground v.1.15,2013-04-16 01:17:00,
2013-04-15 21:22:00,43.2,33.0,30.34,NE,53,0.0,0.0,67,0.00,,,0.40,Wunderground v.1.15,2013-04-16 01:22:00,
2013-04-15 21:27:00,43.2,33.0,30.35,NE,53,0.0,0.0,67,0.00,,,0.40,Wunderground v.1.15,2013-04-16 01:27:00,
2013-04-15 21:32:00,42.8,33.0,30.35,NE,53,0.0,0.0,68,0.00,,,0.40,Wunderground v.1.15,2013-04-16 01:32:00,
2013-04-15 21:37:00,42.6,32.8,30.35,NE,53,0.0,0.0,68,0.00,,,0.40,Wunderground v.1.15,2013-04-16 01:37:00,
2013-04-15 21:42:00,42.5,33.0,30.34,NE,53,0.0,0.0,69,0.00,,,0.40,Wunderground v.1.15,2013-04-16 01:42:00,
2013-04-15 21:47:00,42.1,32.7,30.34,NE,53,0.0,0.0,69,0.00,,,0.40,Wunderground v.1.15,2013-04-16 01:47:00,
2013-04-15 21:52:00,41.9,32.5,30.34,NE,53,0.0,0.0,69,0.00,,,0.40,Wunderground v.1.15,2013-04-16 01:52:00,
2013-04-15 21:57:00,41.3,32.6,30.35,NE,53,0.0,0.0,71,0.00,,,0.40,Wunderground v.1.15,2013-04-16 01:57:00,
2013-04-15 22:03:00,41.3,32.6,30.35,NE,53,0.0,0.0,71,0.00,,,0.40,Wunderground v.1.15,2013-04-16 02:03:00,
2013-04-15 22:08:00,41.1,32.4,30.35,NE,53,0.0,0.0,71,0.00,,,0.40,Wunderground v.1.15,2013-04-16 02:08:00,
2013-04-15 22:13:00,40.8,32.8,30.34,NE,53,0.0,0.0,73,0.00,,,0.40,Wunderground v.1.15,2013-04-16 02:13:00,
2013-04-15 22:18:00,40.5,32.5,30.34,NE,53,0.0,0.0,73,0.00,,,0.40,Wunderground v.1.15,2013-04-16 02:18:00,
2013-04-15 22:23:00,40.3,33.0,30.34,NE,53,0.0,0.0,75,0.00,,,0.40,Wunderground v.1.15,2013-04-16 02:23:00,
2013-04-15 22:28:00,40.2,32.9,30.34,NE,53,0.0,0.0,75,0.00,,,0.40,Wunderground v.1.15,2013-04-16 02:28:00,
2013-04-15 22:34:00,40.6,33.0,30.34,NE,53,0.0,0.0,74,0.00,,,0.40,Wunderground v.1.15,2013-04-16 02:34:00,
2013-04-15 22:39:00,40.8,32.8,30.34,NE,53,0.0,0.0,73,0.00,,,0.40,Wunderground v.1.15,2013-04-16 02:39:00,
2013-04-15 22:44:00,40.3,32.7,30.34,NE,53,0.0,0.0,74,0.00,,,0.40,Wunderground v.1.15,2013-04-16 02:44:00,
2013-04-15 22:49:00,39.5,32.6,30.34,NE,53,0.0,0.0,76,0.00,,,0.40,Wunderground v.1.15,2013-04-16 02:49:00,
2013-04-15 22:54:00,38.8,32.5,30.34,NE,53,0.0,0.0,78,0.00,,,0.40,Wunderground v.1.15,2013-04-16 02:54:00,
2013-04-15 23:00:00,38.6,32.3,30.35,NE,53,0.0,0.0,78,0.00,,,0.40,Wunderground v.1.15,2013-04-16 03:00:00,
2013-04-15 23:05:00,38.5,32.6,30.35,NE,53,0.0,0.0,79,0.00,,,0.40,Wunderground v.1.15,2013-04-16 03:05:00,
2013-04-15 23:10:00,38.2,32.3,30.35,NE,53,0.0,0.0,79,0.00,,,0.40,Wunderground v.1.15,2013-04-16 03:10:00,
2013-04-15 23:15:00,38.2,32.3,30.35,NE,53,0.0,0.0,79,0.00,,,0.40,Wunderground v.1.15,2013-04-16 03:15:00,
2013-04-15 23:20:00,37.8,32.2,30.35,NE,53,0.0,0.0,80,0.00,,,0.40,Wunderground v.1.15,2013-04-16 03:20:00,
2013-04-15 23:25:00,37.3,32.0,30.35,NE,53,0.0,0.0,81,0.00,,,0.40,Wunderground v.1.15,2013-04-16 03:25:00,
2013-04-15 23:30:00,37.3,32.3,30.35,NE,53,0.0,0.0,82,0.00,,,0.40,Wunderground v.1.15,2013-04-16 03:30:00,
2013-04-15 23:35:00,37.8,32.8,30.35,NE,53,0.0,0.0,82,0.00,,,0.40,Wunderground v.1.15,2013-04-16 03:35:00,
2013-04-15 23:40:00,37.3,32.3,30.35,NE,53,0.0,0.0,82,0.00,,,0.40,Wunderground v.1.15,2013-04-16 03:40:00,
2013-04-15 23:46:00,37.0,32.0,30.36,NE,53,0.0,0.0,82,0.00,,,0.40,Wunderground v.1.15,2013-04-16 03:46:00,
2013-04-15 23:51:00,36.6,31.9,30.36,NE,53,0.0,0.0,83,0.00,,,0.40,Wunderground v.1.15,2013-04-16 03:51:00,
2013-04-15 23:57:00,36.2,31.8,30.36,NE,53,0.0,0.0,84,0.00,,,0.00,Wunderground v.1.15,2013-04-16 03:57:00,